sat.trackr.live / text

‹ back to catalog

GAOFEN-12 03

NORAD 52912 · 2022-069A

PAYLOAD ACTIVE UNKNOWN

§ Identity

Operator
Country
PRC
Launch date
2022-06-27
Launch site
JSC
Launch vehicle
Mass (kg)
RCS (m²)

Purposes: earth_obs

External: N2YO · Heavens-Above · Gunter

§ Orbital elements

Epoch: 2026-09-20T04:08:04.222176Z

Period
97.29 min
Inclination
97.8116°
Eccentricity
0.0001294
Mean motion
14.80156608 rev/d
Perigee alt
627.9 km
Apogee alt
629.7 km
Semi-major
7,007.0 km
B*
5.3155e-5
RAAN
148.5805°
Arg perigee
112.8418°
Mean anomaly
247.2931°
Rev number
22,866

§ Raw data

GAOFEN-12 031 52912U 22069A   26263.17227109  .00000353  00000+0  53155-4 0  99992 52912  97.8116 148.5805 0001294 112.8418 247.2931 14.80156608228666

JSON: /api/v1/satellites/52912 · /tle

For live sub-satellite position, see the globe view (requires WebGL).

§ Visibility from observer

Set your observer location to see the next 7 days of passes ≥ 10°. The values pass through the URL so the page stays shareable.

No JS? Fill the form by hand. The geolocation button needs JavaScript.